Zurück zum Katalog

DELTA 1 DEB

AktivSSO
NORAD 42631·DEBRIS·🇺🇸 United States

Gestartet Jun 12, 1975 von Vandenberg Space Force Base

Loading…

Nächste Überflüge (nächste 24 Stunden)

TLE

AktuellSource: Space-Track

Epoche: Sep 14, 2026, 13:18 UTC

1 42631U 75052LQ  26257.55427700  .00000078  00000-0  17215-3 0  9991
2 42631  99.7452 168.0838 0044963  61.1670 299.3970 13.56405886634137

Verfolge DELTA 1 DEB in Echtzeit mit AllMySat

Download on the App Store